QPF
0.04 0.04 0.04 0.03 0.04 0.04 0.04 0.03 0.03 0.03 0.04 0.05 0.06 0.06 0.06 0.05 0.06 0.06 0.06 0.06 0.07 0.09 0.11 0.10 0.04 0.02 0.02 0.03 0.03 0.04 0.04 0.04 0.04 0.05 0.06 0.07 0.07 0.06 0.08 0.12 0.14 0.14 0.13
0.03 0.03 0.03 0.04 0.06 0.06 0.04 0.04 0.03 0.03 0.03 0.05 0.06 0.09 0.09 0.07 0.06 0.05 0.04 0.05 0.05 0.07 0.09 0.06 0.04 0.02 0.02 0.02 0.02 0.03 0.03 0.03 0.05 0.07 0.06 0.06 0.07 0.06 0.07 0.10 0.14 0.14 0.15
0.01 0.01 0.01 0.03 0.04 0.04 0.04 0.03 0.03 0.04 0.04 0.05 0.06 0.08 0.09 0.09 0.08 0.06 0.05 0.05 0.05 0.06 0.06 0.04 0.03 0.02 0.02 0.02 0.02 0.02 0.04 0.03 0.03 0.07 0.07 0.05 0.05 0.05 0.05 0.06 0.09 0.12 0.13
0.01 0.01 0.01 0.01 0.01 0.03 0.03 0.02 0.02 0.03 0.04 0.05 0.07 0.09 0.10 0.09 0.08 0.08 0.06 0.05 0.06 0.06 0.06 0.04 0.03 0.02 0.02 0.02 0.02 0.03 0.04 0.05 0.03 0.03 0.04 0.05 0.04 0.03 0.03 0.04 0.05 0.06 0.08
0.04 0.04 0.04 0.02 0.02 0.02 0.02 0.02 0.02 0.02 0.03 0.05 0.07 0.08 0.08 0.08 0.07 0.09 0.07 0.07 0.06 0.06 0.05 0.04 0.04 0.03 0.02 0.02 0.03 0.03 0.04 0.04 0.04 0.04 0.03 0.04 0.04 0.04 0.03 0.03 0.03 0.05 0.06
0.04 0.04 0.03 0.02 0.02 0.02 0.03 0.03 0.05 0.05 0.04 0.04 0.04 0.05 0.06 0.06 0.06 0.07 0.05 0.06 0.05 0.05 0.05 0.03 0.02 0.02 0.02 0.02 0.02 0.04 0.07 0.06 0.06 0.06 0.04 0.03 0.03 0.03 0.03 0.02 0.02 0.03 0.04
0.02 0.01 0.01 0.02 0.02 0.04 0.05 0.05 0.04 0.06 0.04 0.04 0.04 0.03 0.04 0.06 0.05 0.04 0.04 0.06 0.05 0.04 0.05 0.02 0.02 0.02 0.01 0.02 0.02 0.04 0.08 0.09 0.08 0.07 0.05 0.04 0.03 0.03 0.03 0.03 0.02 0.02 0.02
0.02 0.02 0.02 0.03 0.03 0.04 0.05 0.05 0.04 0.03 0.03 0.04 0.04 0.04 0.05 0.05 0.05 0.04 0.04 0.06 0.03 0.03 0.03 0.02 0.02 0.02 0.02 0.02 0.03 0.03 0.04 0.04 0.04 0.04 0.04 0.03 0.03 0.04 0.04 0.04 0.03 0.03 0.03
0.01 0.02 0.02 0.03 0.03 0.03 0.03 0.04 0.03 0.02 0.02 0.03 0.02 0.02 0.02 0.04 0.03 0.03 0.04 0.04 0.03 0.04 0.04 0.02 0.03 0.03 0.03 0.03 0.02 0.02 0.03 0.03 0.03 0.02 0.02 0.02 0.02 0.02 0.02 0.03 0.04 0.04 0.03
0.01 0.02 0.01 0.02 0.03 0.03 0.02 0.03 0.03 0.03 0.02 0.02 0.02 0.02 0.03 0.03 0.02 0.02 0.03 0.04 0.03 0.04 0.03 0.03 0.02 0.02 0.02 0.02 0.02 0.01 0.02 0.02 0.01 0.01 0.02 0.02 0.02 0.02 0.01 0.02 0.02 0.03 0.04
0.03 0.03 0.02 0.02 0.02 0.02 0.02 0.02 0.03 0.02 0.02 0.02 0.02 0.02 0.03 0.03 0.02 0.02 0.02 0.01 0.01 0.03 0.04 0.03 0.02 0.01 0.01 0.01 0.01 0.01 0.01 0.02 0.02 0.01 0.01 0.02 0.03 0.03 0.02 0.02 0.02 0.03 0.04
0.05 0.03 0.02 0.02 0.01 0.02 0.02 0.03 0.02 0.02 0.01 0.02 0.02 0.02 0.02 0.01 0.01 0.02 0.02 0.01 0.02 0.02 0.03 0.03 0.02 0.01 0.01 0.01 0.00 0.00 0.01 0.02 0.03 0.02 0.02 0.02 0.03 0.04 0.03 0.02 0.02 0.02 0.03
0.03 0.03 0.02 0.02 0.02 0.02 0.03 0.03 0.03 0.02 0.01 0.02 0.02 0.01 0.01 0.02 0.03 0.03 0.02 0.01 0.01 0.01 0.02 0.02 0.02 0.02 0.01 0.01 0.01 0.01 0.01 0.02 0.02 0.02 0.02 0.03 0.05 0.05 0.04 0.03 0.02 0.02 0.03
0.02 0.02 0.03 0.04 0.03 0.02 0.02 0.02 0.03 0.02 0.02 0.02 0.03 0.03 0.03 0.03 0.03 0.03 0.02 0.01 0.01 0.01 0.01 0.01 0.01 0.01 0.01 0.01 0.01 0.01 0.02 0.02 0.03 0.03 0.03 0.03 0.03 0.04 0.04 0.04 0.04 0.03 0.03
0.03 0.04 0.04 0.04 0.03 0.02 0.02 0.02 0.02 0.02 0.03 0.03 0.03 0.03 0.03 0.02 0.01 0.01 0.01 0.00 0.00 0.00 0.00 0.01 0.01 0.00 0.01 0.01 0.01 0.01 0.02 0.03 0.04 0.04 0.04 0.04 0.05 0.05 0.05 0.05 0.05 0.05 0.04
0.03 0.04 0.03 0.03 0.02 0.02 0.03 0.02 0.02 0.03 0.02 0.01 0.01 0.01 0.02 0.01 0.01 0.01 0.01 0.00 0.00 0.00 0.00 0.00 0.01 0.01 0.02 0.01 0.01 0.01 0.01 0.03 0.03 0.04 0.05 0.06 0.06 0.06 0.05 0.05 0.05 0.05 0.04
0.03 0.04 0.03 0.03 0.02 0.02 0.02 0.02 0.02 0.02 0.01 0.00 0.00 0.01 0.01 0.01 0.01 0.01 0.01 0.01 0.00 0.01 0.01 0.02 0.02 0.02 0.01 0.01 0.01 0.02 0.02 0.03 0.04 0.05 0.05 0.04 0.04 0.05 0.06 0.07 0.08 0.08 0.09
0.03 0.04 0.03 0.03 0.02 0.02 0.02 0.01 0.01 0.01 0.01 0.01 0.00 0.01 0.01 0.00 0.01 0.01 0.01 0.01 0.02 0.02 0.02 0.02 0.01 0.01 0.01 0.01 0.02 0.02 0.03 0.03 0.04 0.04 0.04 0.04 0.04 0.06 0.07 0.08 0.08 0.08 0.08
0.03 0.03 0.03 0.02 0.01 0.02 0.02 0.02 0.02 0.02 0.02 0.02 0.02 0.02 0.02 0.02 0.02 0.03 0.03 0.02 0.02 0.01 0.01 0.01 0.01 0.01 0.01 0.01 0.01 0.02 0.02 0.02 0.02 0.03 0.03 0.03 0.02 0.03 0.04 0.03 0.03 0.03 0.04
0.04 0.03 0.02 0.01 0.01 0.01 0.01 0.01 0.02 0.02 0.02 0.03 0.03 0.03 0.03 0.03 0.03 0.03 0.02 0.02 0.01 0.01 0.01 0.01 0.01 0.01 0.01 0.01 0.01 0.01 0.01 0.02 0.02 0.03 0.04 0.03 0.02 0.01 0.02 0.02 0.02 0.01 0.01
0.04 0.04 0.03 0.02 0.01 0.01 0.01 0.01 0.01 0.01 0.02 0.02 0.02 0.02 0.02 0.01 0.02 0.02 0.01 0.01 0.01 0.01 0.01 0.01 0.01 0.01 0.01 0.01 0.01 0.01 0.02 0.02 0.02 0.02 0.02 0.01 0.01 0.01 0.02 0.02 0.03 0.02 0.02
0.02 0.02 0.02 0.02 0.02 0.02 0.02 0.02 0.02 0.02 0.02 0.01 0.01 0.01 0.01 0.01 0.01 0.01 0.02 0.01 0.01 0.01 0.01 0.01 0.01 0.01 0.01 0.01 0.01 0.02 0.02 0.02 0.02 0.02 0.02 0.01 0.01 0.01 0.01 0.01 0.02 0.02 0.02
0.01 0.01 0.01 0.01 0.02 0.02 0.03 0.04 0.04 0.04 0.04 0.03 0.02 0.01 0.01 0.01 0.01 0.01 0.01 0.02 0.01 0.01 0.01 0.01 0.01 0.01 0.01 0.00 0.00 0.00 0.01 0.01 0.01 0.02 0.02 0.02 0.01 0.01 0.01 0.01 0.02 0.02 0.02
0.01 0.01 0.01 0.02 0.02 0.02 0.02 0.02 0.02 0.01 0.02 0.02 0.02 0.01 0.01 0.01 0.01 0.01 0.01 0.01 0.01 0.01 0.01 0.00 0.00 0.00 0.00 0.00 0.00 0.00 0.00 0.01 0.01 0.01 0.02 0.02 0.01 0.01 0.02 0.02 0.03 0.04 0.06
0.02 0.02 0.01 0.01 0.02 0.02 0.02 0.01 0.01 0.01 0.02 0.02 0.01 0.01 0.01 0.01 0.02 0.01 0.01 0.01 0.01 0.02 0.01 0.00 0.00 0.00 0.00 0.00 0.00 0.01 0.00 0.00 0.01 0.01 0.01 0.01 0.01 0.01 0.01 0.01 0.02 0.02 0.03
0.02 0.02 0.02 0.01 0.01 0.01 0.02 0.02 0.01 0.02 0.02 0.02 0.02 0.01 0.01 0.01 0.01 0.01 0.01 0.01 0.01 0.01 0.00 0.00 0.00 0.00 0.00 0.01 0.01 0.01 0.00 0.00 0.01 0.01 0.01 0.01 0.01 0.01 0.02 0.02 0.02 0.01 0.01
MSLP
1011.49 1011.46 1011.43 1011.34 1011.18 1010.95 1010.68 1010.43 1010.24 1010.15 1010.17 1010.31 1010.55 1010.85 1011.18 1011.52 1011.87 1012.21 1012.56 1012.93 1013.33 1013.74 1014.17 1014.59 1014.98 1015.33 1015.63 1015.89 1016.11 1016.33 1016.55 1016.79 1017.07 1017.35 1017.62 1017.86 1018.02 1018.09 1018.06 1017.94 1017.76 1017.55 1017.36
1011.41 1011.42 1011.39 1011.27 1011.05 1010.75 1010.42 1010.13 1009.93 1009.88 1009.97 1010.20 1010.53 1010.91 1011.29 1011.64 1011.96 1012.24 1012.51 1012.81 1013.14 1013.53 1013.95 1014.40 1014.83 1015.23 1015.57 1015.85 1016.08 1016.29 1016.50 1016.73 1016.99 1017.28 1017.58 1017.84 1018.04 1018.15 1018.14 1018.03 1017.84 1017.60 1017.36
1011.24 1011.31 1011.32 1011.21 1010.97 1010.64 1010.27 1009.96 1009.76 1009.74 1009.89 1010.19 1010.60 1011.03 1011.45 1011.80 1012.08 1012.31 1012.51 1012.74 1013.01 1013.36 1013.77 1014.23 1014.69 1015.12 1015.49 1015.80 1016.04 1016.25 1016.45 1016.67 1016.93 1017.24 1017.55 1017.86 1018.10 1018.25 1018.27 1018.18 1017.98 1017.72 1017.44
1011.01 1011.16 1011.24 1011.17 1010.95 1010.61 1010.24 1009.91 1009.73 1009.72 1009.91 1010.25 1010.70 1011.18 1011.61 1011.97 1012.22 1012.41 1012.56 1012.73 1012.96 1013.27 1013.67 1014.12 1014.60 1015.05 1015.44 1015.76 1016.01 1016.22 1016.42 1016.64 1016.91 1017.22 1017.56 1017.90 1018.18 1018.37 1018.43 1018.36 1018.17 1017.89 1017.58
1010.77 1011.02 1011.17 1011.17 1010.98 1010.67 1010.30 1009.97 1009.78 1009.78 1009.97 1010.34 1010.81 1011.30 1011.75 1012.11 1012.37 1012.53 1012.66 1012.80 1012.99 1013.28 1013.66 1014.10 1014.57 1015.03 1015.42 1015.75 1016.00 1016.21 1016.41 1016.63 1016.90 1017.23 1017.58 1017.94 1018.25 1018.47 1018.56 1018.51 1018.34 1018.06 1017.73
1010.57 1010.90 1011.13 1011.20 1011.06 1010.78 1010.42 1010.08 1009.88 1009.86 1010.04 1010.40 1010.87 1011.37 1011.84 1012.22 1012.48 1012.66 1012.79 1012.92 1013.11 1013.38 1013.73 1014.16 1014.61 1015.05 1015.44 1015.76 1016.01 1016.22 1016.41 1016.63 1016.90 1017.22 1017.58 1017.94 1018.27 1018.51 1018.62 1018.60 1018.44 1018.17 1017.84
1010.42 1010.82 1011.12 1011.24 1011.16 1010.91 1010.56 1010.22 1009.99 1009.94 1010.09 1010.42 1010.88 1011.38 1011.86 1012.26 1012.56 1012.77 1012.93 1013.08 1013.27 1013.53 1013.87 1014.27 1014.70 1015.11 1015.48 1015.77 1016.01 1016.21 1016.39 1016.60 1016.86 1017.17 1017.51 1017.87 1018.19 1018.44 1018.57 1018.57 1018.44 1018.20 1017.89
1010.31 1010.76 1011.12 1011.29 1011.25 1011.02 1010.68 1010.34 1010.08 1009.99 1010.10 1010.39 1010.82 1011.32 1011.81 1012.24 1012.59 1012.85 1013.05 1013.24 1013.45 1013.71 1014.03 1014.40 1014.79 1015.16 1015.49 1015.76 1015.98 1016.16 1016.33 1016.52 1016.76 1017.04 1017.36 1017.69 1018.00 1018.24 1018.38 1018.41 1018.32 1018.13 1017.86
1010.24 1010.72 1011.11 1011.32 1011.31 1011.10 1010.77 1010.42 1010.14 1010.02 1010.09 1010.34 1010.74 1011.22 1011.72 1012.18 1012.57 1012.89 1013.14 1013.37 1013.60 1013.87 1014.17 1014.51 1014.86 1015.18 1015.48 1015.71 1015.91 1016.07 1016.22 1016.39 1016.59 1016.84 1017.13 1017.42 1017.70 1017.93 1018.08 1018.14 1018.10 1017.97 1017.77
1010.16 1010.66 1011.07 1011.30 1011.31 1011.13 1010.82 1010.47 1010.19 1010.04 1010.08 1010.30 1010.67 1011.13 1011.63 1012.11 1012.54 1012.90 1013.20 1013.46 1013.72 1013.98 1014.27 1014.57 1014.88 1015.16 1015.41 1015.62 1015.79 1015.93 1016.06 1016.21 1016.39 1016.60 1016.84 1017.09 1017.34 1017.55 1017.70 1017.79 1017.80 1017.75 1017.62
1010.06 1010.57 1010.98 1011.23 1011.26 1011.11 1010.83 1010.52 1010.25 1010.10 1010.13 1010.32 1010.66 1011.10 1011.59 1012.07 1012.51 1012.89 1013.22 1013.51 1013.77 1014.04 1014.31 1014.58 1014.85 1015.10 1015.32 1015.50 1015.66 1015.78 1015.90 1016.03 1016.17 1016.35 1016.54 1016.75 1016.95 1017.14 1017.29 1017.40 1017.46 1017.47 1017.43
1009.92 1010.43 1010.84 1011.09 1011.16 1011.05 1010.82 1010.56 1010.34 1010.22 1010.25 1010.43 1010.75 1011.16 1011.62 1012.08 1012.52 1012.90 1013.23 1013.52 1013.79 1014.05 1014.30 1014.55 1014.79 1015.02 1015.22 1015.38 1015.52 1015.64 1015.75 1015.86 1015.98 1016.12 1016.27 1016.43 1016.59 1016.74 1016.88 1017.00 1017.09 1017.16 1017.19
1009.72 1010.22 1010.63 1010.89 1010.99 1010.94 1010.79 1010.61 1010.46 1010.40 1010.46 1010.64 1010.94 1011.32 1011.75 1012.17 1012.57 1012.93 1013.24 1013.53 1013.79 1014.03 1014.27 1014.50 1014.73 1014.93 1015.12 1015.28 1015.41 1015.52 1015.63 1015.72 1015.82 1015.93 1016.03 1016.14 1016.26 1016.37 1016.48 1016.59 1016.69 1016.79 1016.87
1009.45 1009.93 1010.33 1010.60 1010.74 1010.77 1010.71 1010.64 1010.59 1010.60 1010.71 1010.92 1011.21 1011.56 1011.93 1012.30 1012.65 1012.98 1013.27 1013.53 1013.77 1014.01 1014.23 1014.45 1014.66 1014.85 1015.02 1015.17 1015.30 1015.41 1015.50 1015.58 1015.66 1015.74 1015.81 1015.88 1015.94 1016.01 1016.09 1016.17 1016.26 1016.36 1016.46
1009.11 1009.56 1009.94 1010.22 1010.41 1010.52 1010.57 1010.61 1010.67 1010.78 1010.96 1011.19 1011.48 1011.80 1012.12 1012.44 1012.75 1013.02 1013.28 1013.52 1013.75 1013.97 1014.18 1014.39 1014.58 1014.76 1014.91 1015.04 1015.15 1015.25 1015.32 1015.39 1015.45 1015.51 1015.55 1015.58 1015.61 1015.64 1015.67 1015.72 1015.78 1015.85 1015.94
1008.69 1009.09 1009.44 1009.73 1009.97 1010.16 1010.32 1010.48 1010.66 1010.87 1011.11 1011.38 1011.67 1011.97 1012.25 1012.53 1012.78 1013.02 1013.25 1013.47 1013.69 1013.90 1014.10 1014.29 1014.46 1014.61 1014.74 1014.84 1014.92 1014.99 1015.05 1015.10 1015.14 1015.18 1015.20 1015.22 1015.22 1015.21 1015.21 1015.21 1015.23 1015.27 1015.33
1008.19 1008.53 1008.85 1009.15 1009.42 1009.68 1009.95 1010.22 1010.50 1010.80 1011.11 1011.41 1011.71 1011.99 1012.25 1012.49 1012.72 1012.93 1013.14 1013.35 1013.56 1013.76 1013.96 1014.13 1014.27 1014.38 1014.47 1014.53 1014.57 1014.60 1014.63 1014.66 1014.69 1014.72 1014.74 1014.75 1014.75 1014.73 1014.70 1014.67 1014.65 1014.64 1014.66
1007.62 1007.91 1008.20 1008.49 1008.79 1009.11 1009.45 1009.81 1010.17 1010.54 1010.90 1011.23 1011.54 1011.82 1012.06 1012.29 1012.50 1012.70 1012.91 1013.12 1013.33 1013.53 1013.71 1013.85 1013.96 1014.03 1014.06 1014.07 1014.06 1014.06 1014.05 1014.07 1014.09 1014.13 1014.16 1014.19 1014.19 1014.18 1014.14 1014.10 1014.04 1014.00 1013.96
1007.02 1007.26 1007.51 1007.80 1008.12 1008.48 1008.87 1009.28 1009.70 1010.11 1010.50 1010.85 1011.16 1011.44 1011.68 1011.90 1012.12 1012.33 1012.55 1012.77 1012.98 1013.18 1013.34 1013.46 1013.53 1013.55 1013.53 1013.49 1013.43 1013.39 1013.36 1013.37 1013.40 1013.45 1013.51 1013.56 1013.60 1013.60 1013.58 1013.53 1013.46 1013.38 1013.30
1006.42 1006.62 1006.86 1007.14 1007.47 1007.84 1008.26 1008.69 1009.13 1009.56 1009.95 1010.31 1010.62 1010.89 1011.14 1011.37 1011.59 1011.82 1012.06 1012.29 1012.51 1012.71 1012.86 1012.95 1012.98 1012.96 1012.90 1012.81 1012.73 1012.66 1012.62 1012.63 1012.67 1012.75 1012.85 1012.94 1013.01 1013.04 1013.04 1012.99 1012.91 1012.80 1012.68
1005.86 1006.04 1006.27 1006.55 1006.88 1007.26 1007.67 1008.10 1008.54 1008.95 1009.33 1009.68 1009.98 1010.25 1010.50 1010.74 1010.98 1011.22 1011.47 1011.72 1011.95 1012.14 1012.27 1012.35 1012.36 1012.31 1012.22 1012.12 1012.02 1011.94 1011.91 1011.94 1012.01 1012.12 1012.25 1012.37 1012.47 1012.53 1012.53 1012.49 1012.39 1012.26 1012.11
1005.32 1005.52 1005.76 1006.04 1006.37 1006.74 1007.14 1007.56 1007.97 1008.35 1008.71 1009.03 1009.32 1009.59 1009.83 1010.08 1010.33 1010.59 1010.85 1011.09 1011.32 1011.50 1011.63 1011.69 1011.70 1011.64 1011.56 1011.46 1011.37 1011.32 1011.31 1011.37 1011.47 1011.60 1011.75 1011.89 1012.00 1012.07 1012.06 1012.00 1011.89 1011.73 1011.54
1004.80 1005.04 1005.30 1005.59 1005.93 1006.29 1006.67 1007.06 1007.44 1007.80 1008.13 1008.43 1008.71 1008.96 1009.21 1009.45 1009.70 1009.96 1010.22 1010.46 1010.67 1010.85 1010.97 1011.03 1011.04 1011.00 1010.94 1010.88 1010.83 1010.82 1010.86 1010.94 1011.07 1011.22 1011.37 1011.51 1011.60 1011.63 1011.60 1011.50 1011.35 1011.16 1010.94
1004.25 1004.52 1004.82 1005.14 1005.48 1005.85 1006.22 1006.59 1006.95 1007.29 1007.60 1007.89 1008.15 1008.40 1008.65 1008.89 1009.13 1009.38 1009.62 1009.84 1010.04 1010.20 1010.32 1010.38 1010.41 1010.41 1010.40 1010.39 1010.40 1010.45 1010.53 1010.65 1010.80 1010.94 1011.07 1011.17 1011.21 1011.19 1011.10 1010.95 1010.75 1010.51 1010.26
1003.61 1003.92 1004.25 1004.60 1004.96 1005.33 1005.71 1006.08 1006.44 1006.77 1007.09 1007.38 1007.65 1007.90 1008.15 1008.39 1008.62 1008.85 1009.07 1009.26 1009.44 1009.58 1009.69 1009.77 1009.82 1009.87 1009.91 1009.97 1010.05 1010.16 1010.29 1010.44 1010.58 1010.71 1010.79 1010.83 1010.79 1010.69 1010.53 1010.31 1010.05 1009.78 1009.50
1002.84 1003.17 1003.52 1003.89 1004.27 1004.67 1005.06 1005.46 1005.84 1006.20 1006.54 1006.85 1007.15 1007.42 1007.68 1007.92 1008.15 1008.36 1008.55 1008.72 1008.87 1008.99 1009.09 1009.18 1009.27 1009.36 1009.46 1009.58 1009.73 1009.89 1010.05 1010.21 1010.34 1010.43 1010.46 1010.42 1010.30 1010.11 1009.87 1009.58 1009.28 1008.98 1008.70
Thickness
5751 5750 5748 5746 5742 5737 5733 5731 5728 5725 5722 5718 5715 5711 5708 5707 5706 5705 5704 5703 5701 5700 5696 5695 5694 5693 5691 5689 5688 5687 5685 5685 5685 5683 5683 5687 5691 5693 5695 5696 5696 5697 5699
5746 5745 5744 5742 5738 5733 5730 5727 5724 5722 5719 5716 5713 5710 5706 5704 5702 5700 5699 5698 5696 5695 5692 5690 5689 5687 5685 5683 5682 5680 5678 5678 5679 5676 5673 5673 5677 5683 5689 5690 5691 5692 5693
5741 5741 5740 5737 5734 5731 5728 5726 5722 5719 5717 5713 5710 5706 5702 5699 5696 5694 5693 5693 5692 5690 5688 5686 5684 5682 5680 5678 5676 5675 5673 5671 5672 5673 5669 5665 5665 5670 5677 5681 5684 5685 5686
5742 5738 5736 5733 5731 5729 5727 5723 5720 5717 5714 5710 5706 5701 5696 5693 5692 5690 5689 5689 5688 5686 5684 5682 5680 5678 5676 5674 5672 5671 5669 5667 5665 5665 5666 5666 5665 5662 5664 5670 5674 5677 5678
5740 5736 5734 5731 5730 5728 5724 5720 5716 5713 5710 5707 5703 5698 5694 5692 5690 5688 5686 5685 5684 5682 5680 5678 5676 5673 5672 5670 5668 5666 5664 5663 5661 5659 5659 5659 5659 5659 5657 5658 5662 5667 5670
5738 5734 5733 5730 5726 5723 5719 5716 5712 5708 5706 5702 5699 5695 5691 5688 5686 5684 5682 5680 5679 5678 5676 5674 5672 5669 5667 5666 5664 5662 5660 5658 5657 5655 5654 5653 5652 5651 5651 5651 5653 5655 5660
5733 5730 5728 5725 5721 5718 5715 5711 5708 5704 5702 5699 5695 5692 5689 5686 5683 5681 5679 5676 5674 5672 5671 5670 5668 5665 5664 5662 5660 5658 5656 5654 5652 5651 5650 5649 5648 5648 5647 5646 5646 5647 5651
5729 5727 5725 5722 5719 5715 5711 5708 5704 5700 5698 5695 5691 5689 5686 5683 5680 5678 5675 5673 5670 5669 5668 5666 5664 5662 5660 5658 5656 5654 5652 5650 5648 5647 5646 5644 5644 5644 5644 5642 5640 5639 5640
5726 5724 5721 5719 5715 5712 5709 5706 5701 5698 5695 5692 5688 5685 5683 5680 5677 5675 5672 5670 5668 5666 5664 5662 5660 5658 5655 5653 5651 5648 5647 5645 5643 5642 5641 5640 5639 5639 5639 5638 5637 5634 5632
5723 5720 5718 5715 5712 5709 5706 5704 5700 5696 5693 5689 5686 5683 5680 5677 5674 5671 5668 5665 5663 5661 5659 5657 5655 5653 5651 5649 5646 5643 5642 5640 5639 5637 5636 5635 5634 5633 5633 5633 5632 5631 5629
5719 5716 5714 5712 5709 5706 5703 5700 5696 5693 5689 5686 5682 5679 5676 5674 5671 5667 5664 5661 5659 5657 5654 5652 5650 5648 5646 5644 5641 5639 5638 5636 5634 5633 5631 5630 5629 5627 5627 5626 5626 5625 5623
5714 5713 5711 5709 5706 5702 5699 5696 5692 5689 5686 5683 5679 5676 5673 5670 5667 5663 5661 5658 5655 5653 5651 5648 5646 5644 5642 5639 5637 5635 5633 5631 5629 5628 5626 5625 5624 5622 5621 5621 5620 5619 5619
5711 5709 5707 5705 5702 5699 5697 5693 5690 5686 5683 5680 5675 5672 5669 5666 5663 5660 5657 5654 5651 5649 5647 5644 5642 5640 5638 5636 5634 5631 5629 5627 5625 5624 5622 5620 5618 5617 5616 5615 5614 5613 5614
5708 5705 5702 5700 5698 5697 5695 5691 5688 5685 5681 5676 5672 5668 5665 5662 5659 5656 5653 5651 5648 5645 5643 5641 5639 5637 5635 5632 5630 5628 5625 5623 5622 5620 5619 5617 5615 5614 5612 5611 5609 5608 5607
5704 5702 5699 5697 5695 5694 5691 5688 5685 5682 5678 5673 5669 5665 5662 5660 5657 5653 5650 5647 5645 5643 5640 5638 5635 5633 5631 5629 5626 5624 5622 5619 5617 5616 5615 5613 5612 5611 5609 5608 5605 5603 5601
5701 5701 5699 5696 5693 5691 5688 5685 5681 5678 5674 5669 5665 5663 5659 5656 5653 5650 5647 5644 5642 5640 5637 5634 5631 5629 5628 5625 5623 5620 5617 5615 5613 5611 5610 5609 5607 5606 5605 5604 5602 5600 5597
5699 5698 5696 5694 5692 5689 5686 5682 5679 5675 5671 5666 5663 5660 5656 5652 5649 5647 5644 5641 5638 5636 5633 5630 5627 5624 5623 5621 5619 5617 5613 5611 5609 5607 5606 5605 5604 5601 5599 5598 5597 5596 5595
5697 5695 5693 5691 5689 5687 5684 5680 5676 5672 5668 5664 5660 5657 5653 5649 5646 5644 5641 5638 5635 5632 5629 5627 5624 5621 5619 5617 5615 5612 5609 5607 5605 5604 5601 5599 5597 5597 5594 5593 5591 5590 5590
5695 5693 5691 5689 5686 5683 5681 5677 5673 5669 5665 5661 5657 5655 5651 5647 5643 5640 5637 5635 5632 5629 5626 5624 5621 5618 5615 5613 5611 5608 5604 5602 5600 5599 5597 5595 5593 5592 5590 5587 5585 5585 5585
5692 5689 5688 5685 5682 5679 5676 5672 5667 5664 5661 5658 5655 5653 5649 5645 5641 5638 5635 5632 5629 5626 5624 5621 5618 5615 5612 5610 5607 5604 5600 5597 5595 5594 5593 5591 5589 5588 5586 5583 5580 5579 5579
5688 5686 5684 5680 5678 5676 5672 5666 5663 5659 5658 5656 5653 5650 5647 5643 5639 5636 5633 5630 5627 5623 5619 5616 5614 5612 5609 5606 5603 5600 5596 5593 5591 5589 5588 5587 5585 5584 5582 5580 5577 5576 5575
5682 5681 5678 5675 5674 5671 5667 5662 5659 5658 5656 5653 5650 5646 5643 5641 5638 5633 5630 5626 5623 5619 5615 5612 5609 5608 5606 5603 5601 5597 5594 5591 5588 5586 5585 5583 5582 5580 5578 5576 5574 5573 5571
5676 5674 5672 5670 5669 5667 5663 5659 5658 5656 5653 5648 5644 5641 5639 5636 5633 5629 5625 5621 5617 5613 5610 5607 5604 5603 5602 5600 5598 5595 5592 5589 5585 5583 5582 5580 5577 5575 5573 5572 5570 5567 5564
5670 5668 5666 5663 5662 5661 5660 5657 5656 5653 5649 5644 5640 5637 5634 5631 5628 5624 5621 5616 5613 5609 5606 5603 5601 5599 5597 5595 5593 5591 5589 5586 5583 5580 5577 5575 5573 5571 5568 5566 5564 5562 5559
5662 5661 5659 5657 5656 5656 5654 5653 5651 5648 5643 5639 5636 5633 5630 5626 5623 5620 5616 5613 5611 5607 5604 5601 5598 5595 5593 5592 5590 5586 5584 5581 5578 5575 5571 5569 5566 5563 5561 5559 5558 5556 5554
5656 5654 5653 5652 5651 5650 5648 5647 5645 5643 5639 5634 5631 5628 5625 5622 5619 5615 5612 5611 5609 5607 5603 5600 5597 5595 5592 5590 5587 5583 5580 5577 5573 5568 5564 5561 5559 5556 5555 5553 5551 5550 5548